Presure
113 117 108 117 116 119 120 141 143 140 139 152 125 135 124 127 120 97 130 128 94 106 104 104 109 94 102 93 110 109 112 104 104 83 111 89 109 82 89 113 84 103 117
118 111 105 113 79 114 114 114 110 118 131 137 158 157 108 119 151 125 128 133 131 131 78 112 109 109 112 94 106 101 109 91 113 114 103 113 116 102 111 110 103 117 111
113 105 112 112 108 103 118 115 124 112 113 105 117 126 134 131 135 134 132 125 127 130 128 125 124 127 131 130 132 93 111 107 115 114 115 124 111 111 95 111 111 111 115
116 121 115 115 115 118 114 111 106 106 120 113 112 119 132 136 130 128 123 130 120 115 118 122 117 113 111 120 118 122 122 123 123 119 85 103 112 101 108 114 119 126 76
160 146 144 137 124 116 115 119 116 114 122 123 124 120 123 124 118 128 118 128 117 130 112 111 118 118 121 103 106 97 99 112 116 105 105 110 119 114 119 84 127 129 131
153 194 169 154 155 150 142 155 125 121 88 135 110 122 127 129 117 122 125 132 124 128 127 124 125 127 122 122 121 112 111 119 85 116 118 112 121 122 122 130 131 115 136
152 221 212 169 232 237 244 232 232 180 155 122 114 123 123 121 131 131 114 115 115 118 120 121 119 114 122 106 111 113 101 121 91 116 132 127 127 130 155 126 218 203 206
175 202 177 184 161 179 145 139 144 189 237 166 229 181 178 176 131 122 124 124 125 120 120 112 118 118 120 118 120 120 123 116 122 148 124 132 210 211 144 201 193 162 189
212 218 202 192 194 125 127 125 131 137 199 152 152 176 240 174 222 151 154 126 124 124 124 121 121 131 128 122 124 123 125 127 119 123 153 162 211 176 192 185 194 185 186
183 203 206 207 214 217 129 226 231 146 128 230 219 147 242 246 234 154 227 223 228 163 160 199 231 228 132 135 118 129 202 230 216 235 252 215 214 221 218 201 190 192 187
201 197 196 208 222 223 209 223 211 181 216 218 239 215 206 187 227 220 215 225 126 217 194 205 224 180 162 171 209 174 238 193 228 215 207 206 210 102 161 155 158 206 192
196 200 196 195 196 220 227 217 210 217 218 223 216 225 201 240 221 224 233 226 217 221 121 217 216 210 148 217 226 189 209 213 236 100 218 234 206 200 197 206 196 200 193
191 187 201 212 197 193 201 224 226 209 224 222 217 205 222 220 163 226 230 226 200 219 215 204 214 216 216 215 206 203 206 218 226 227 224 232 153 215 222 199 191 202 172
203 198 189 184 239 196 185 183 220 206 218 214 207 220 212 206 215 235 216 219 221 204 214 200 211 218 210 208 204 123 219 209 91 129 221 170 239 195 225 209 213 202 203
196 206 202 206 196 181 236 235 217 214 205 206 214 217 208 209 206 219 215 219 214 209 210 203 207 215 214 182 198 205 163 197 212 185 184 199 236 239 177 208 210 213 208
188 189 196 200 165 181 179 216 214 215 209 191 206 204 204 208 202 215 225 215 216 213 201 198 198 208 191 207 162 175 191 200 190 194 204 206 167 207 225 231 220 213 216
195 189 184 232 217 202 231 228 224 216 218 195 200 107 213 211 200 209 197 200 204 214 201 201 198 202 203 203 207 198 197 187 194 197 205 194 200 211 187 228 224 219 219
227 217 205 203 228 200 221 223 228 216 235 217 212 127 237 226 198 196 196 205 214 202 202 202 198 197 191 196 190 193 197 197 196 89 211 212 197 196 202 230 220 213 216
180 205 206 208 211 208 217 226 225 226 232 229 231 216 174 193 173 241 226 209 200 211 212 203 194 193 185 188 193 200 203 185 200 187 190 189 209 190 193 215 207 213 217
229 223 219 195 216 168 229 229 227 229 240 230 231 240 214 236 222 245 219 214 219 213 212 200 194 192 185 185 193 189 198 182 200 175 177 205 189 205 188 182 184 214 215
224 225 227 226 228 237 241 227 239 231 193 190 247 256 219 225 244 218 231 225 222 213 205 196 201 191 182 173 133 188 190 192 197 193 181 191 183 200 198 194 170 193 178
229 239 237 229 233 209 224 241 256 215 247 211 237 217 233 231 217 178 202 228 227 209 212 187 200 189 181 186 192 187 202 185 188 169 186 172 179 187 193 185 190 190 185
265 264 267 260 258 144 245 266 259 255 262 274 183 212 218 223 237 224 198 190 218 208 213 211 85 90 182 182 191 190 193 189 189 164 186 176 169 181 181 189 179 196 189
264 251 282 275 332 278 250 236 277 194 206 273 239 247 201 213 196 243 202 82 230 215 209 105 192 193 180 187 182 190 185 178 110 175 178 169 159 169 158 179 194 191 202
376 392 384 205 390 378 355 376 432 459 275 281 234 188 192 207 213 226 203 219 234 228 204 209 194 181 178 182 181 189 188 173 178 174 175 174 189 174 185 183 194 182 198
359 295 339 345 266 226 345 204 349 241 169 190 317 196 205 197 218 234 208 232 245 229 220 206 197 182 189 178 164 188 189 188 181 195 167 181 171 183 174 183 202 190 205
Wind_Speed
46 48 46 49 48 49 49 55 54 52 52 59 48 53 50 50 46 33 47 47 29 36 34 30 36 35 33 25 41 40 43 43 47 30 52 29 52 21 31 57 30 34 63
52 50 49 52 21 52 52 48 46 49 51 53 55 52 40 50 53 49 48 50 51 50 25 45 40 41 44 29 38 36 42 33 50 52 45 58 57 42 55 54 43 65 56
54 48 55 55 51 45 56 54 53 47 46 41 49 53 55 55 53 52 52 50 50 51 51 52 54 55 56 52 51 33 46 43 50 51 55 59 56 56 35 55 58 57 57
58 63 59 58 57 59 56 51 41 45 55 45 46 52 56 57 54 52 51 50 47 45 46 50 49 46 44 50 50 53 55 54 54 52 24 48 59 46 48 59 61 67 26
71 67 67 68 65 60 59 61 59 54 61 57 58 54 56 55 52 55 49 54 49 54 44 45 51 52 54 41 45 34 42 50 51 45 50 55 59 52 62 35 71 73 73
68 84 81 72 71 68 69 72 65 64 32 69 52 58 60 61 54 54 55 56 54 55 56 56 58 57 55 54 56 55 54 59 34 58 58 56 63 62 66 73 73 57 42
71 58 62 68 64 61 57 62 61 73 69 54 52 63 60 57 61 62 46 48 50 51 55 56 56 53 57 45 53 56 38 62 31 63 69 68 67 68 61 24 50 46 47
81 74 74 64 67 65 68 70 72 60 46 34 61 74 61 70 65 59 60 59 59 54 55 52 58 57 58 57 59 64 64 61 66 55 68 72 30 32 32 40 47 43 49
64 60 70 75 74 68 67 68 70 71 61 75 74 66 51 75 55 62 68 64 59 58 60 59 60 65 63 58 60 66 65 67 62 65 32 66 36 41 45 53 45 53 52
75 65 62 62 60 61 69 58 59 74 68 44 52 70 44 47 50 67 51 51 51 64 62 53 38 33 61 62 57 63 34 20 27 21 33 42 38 40 47 47 49 51 56
64 68 69 61 59 59 63 57 64 65 59 54 47 52 56 63 48 52 53 49 60 48 53 53 38 54 58 52 37 47 18 20 20 30 30 37 36 44 52 52 54 49 54
70 67 67 69 67 62 59 61 62 61 58 57 55 53 57 45 49 46 50 48 49 45 31 45 37 37 60 33 28 41 24 22 17 27 29 34 40 46 46 41 45 45 49
72 71 70 68 70 67 63 62 58 63 56 57 54 54 51 50 57 46 48 48 51 45 44 47 40 34 36 27 30 33 27 23 23 22 25 32 53 38 42 43 47 46 61
73 76 72 69 69 67 65 65 63 68 58 60 57 57 55 53 50 47 48 44 48 45 45 48 41 33 37 31 26 35 18 21 27 40 21 47 36 41 39 42 47 48 52
77 78 79 78 76 69 61 58 63 64 67 64 63 60 57 56 54 48 49 49 46 46 44 46 41 37 32 34 36 25 35 25 23 32 35 23 25 38 38 43 46 53 54
80 80 80 77 64 67 69 69 68 68 69 66 67 68 61 61 54 56 51 50 47 44 44 48 42 37 36 34 45 40 32 27 27 21 21 27 34 29 34 43 48 51 51
86 79 73 79 78 80 71 72 71 73 72 68 73 43 73 66 61 60 55 53 50 46 43 44 42 39 36 39 36 35 32 34 26 26 24 32 28 24 40 38 43 46 42
85 85 84 83 81 84 79 78 77 76 74 72 70 47 69 70 60 62 59 59 50 47 46 45 44 42 45 38 42 35 33 32 28 44 28 24 29 30 24 32 36 39 39
72 86 88 85 83 85 85 85 82 83 80 75 71 72 65 58 55 59 60 60 54 52 49 45 48 45 50 46 44 40 37 31 33 30 28 29 24 32 28 27 31 34 39
90 89 90 80 93 70 91 88 89 85 90 79 75 77 71 63 60 61 60 62 61 57 51 48 49 46 55 47 47 38 36 33 33 35 35 28 32 23 27 36 31 32 36
90 93 99 98 99 101 99 94 97 88 62 72 81 81 67 67 59 62 64 62 62 61 53 50 49 47 57 49 51 42 37 35 31 29 31 31 35 27 28 30 46 30 35
92 98 100 106 107 90 90 96 105 86 90 57 78 61 70 70 62 51 54 63 64 60 58 51 51 51 56 55 52 43 43 35 33 38 31 38 37 35 32 38 37 36 36
92 100 108 111 113 48 100 112 102 100 98 99 60 66 58 69 64 58 50 53 62 59 61 55 26 30 57 55 53 48 42 37 36 44 32 35 42 39 41 34 42 36 38
98 109 110 112 95 117 98 94 115 66 68 101 86 80 62 72 68 63 59 25 69 63 60 31 56 54 59 59 53 51 43 42 44 39 41 42 48 40 47 42 36 38 40
78 62 57 56 57 64 66 71 60 91 114 111 70 65 57 70 67 62 59 61 71 69 57 59 59 57 61 59 51 51 47 44 40 42 42 43 37 43 40 41 40 46 41
47 32 43 53 53 44 72 63 67 63 55 50 90 73 67 64 72 64 59 61 71 70 68 62 61 58 58 61 46 52 48 43 43 42 48 42 48 43 43 41 40 42 43
Wind_Direction
266 264 267 266 268 268 267 265 263 262 261 269 258 258 260 258 258 262 257 261 267 272 274 274 274 275 281 276 286 289 283 292 292 292 290 284 296 269 286 303 307 310 303
264 260 260 262 276 265 265 266 267 266 262 260 270 263 262 262 267 261 263 262 262 264 263 272 275 276 276 275 288 287 285 283 284 283 291 286 288 306 300 302 311 296 306
258 259 256 255 257 264 261 261 261 262 263 257 261 262 259 259 258 258 261 263 263 263 263 267 269 269 271 272 272 271 283 283 281 284 284 282 289 293 300 298 298 301 300
258 256 259 261 259 257 259 264 267 254 262 262 264 262 260 259 261 261 262 262 266 269 270 269 273 277 281 280 279 277 277 277 279 280 283 295 289 286 291 293 293 290 278
265 262 261 260 258 262 262 260 263 266 263 263 261 262 261 260 264 261 263 261 268 264 274 273 273 274 275 271 284 277 274 285 283 283 289 289 286 281 292 288 291 292 293
261 271 266 264 264 263 262 268 260 262 259 263 260 265 263 260 267 265 263 259 263 264 265 268 270 270 275 276 277 285 286 284 268 287 287 288 286 289 288 289 289 300 284
264 274 272 266 277 278 279 273 273 269 265 269 269 266 266 266 263 262 266 269 270 268 268 268 271 276 274 280 281 282 279 283 256 288 285 286 287 286 280 263 249 261 269
270 275 268 269 263 268 260 260 261 266 273 268 265 268 262 269 262 267 267 265 264 267 266 272 272 273 272 275 276 277 278 282 284 276 284 283 246 246 266 259 267 275 269
276 280 275 272 273 264 265 267 265 263 268 265 265 264 259 270 262 263 267 265 266 266 265 267 269 268 270 273 274 274 276 276 279 282 264 275 239 260 262 270 259 269 267
271 275 276 278 281 282 264 283 283 263 266 276 267 264 261 258 261 265 268 268 271 269 268 274 283 279 269 270 273 275 272 268 268 233 220 239 239 232 239 244 257 253 260
272 271 272 278 281 281 277 279 278 272 278 275 263 268 264 266 259 265 267 266 262 270 270 276 279 273 271 272 281 273 278 258 269 259 247 251 249 279 273 278 277 243 252
274 275 274 276 277 282 276 276 276 276 275 276 272 272 266 256 262 262 261 264 267 267 256 272 274 274 266 276 281 268 278 270 269 290 253 244 254 259 257 250 253 250 256
274 274 278 280 280 278 276 270 269 275 270 271 271 266 270 268 262 259 256 258 266 265 266 270 272 270 266 268 274 276 278 269 262 245 253 251 277 253 243 258 260 253 266
276 276 275 273 280 277 277 274 268 273 265 267 269 267 268 265 266 255 256 254 256 267 266 271 269 266 266 265 264 261 273 268 297 264 269 277 242 259 246 256 252 257 257
280 279 279 279 277 273 270 264 266 265 270 269 265 262 264 263 263 260 260 254 255 259 260 266 267 267 263 266 264 264 274 277 264 275 271 264 253 242 264 257 255 251 258
280 280 279 279 267 274 276 269 265 261 264 264 265 267 265 264 263 261 252 253 252 252 256 262 266 263 262 259 266 266 271 274 270 264 255 260 266 262 251 248 252 257 260
279 279 276 279 276 275 270 264 261 261 257 268 268 253 264 259 262 261 261 258 255 251 253 254 259 258 261 258 258 262 270 269 271 274 263 270 263 266 264 251 249 255 256
279 276 273 274 276 276 274 270 267 262 259 256 256 257 259 261 261 256 259 260 252 252 249 246 250 250 257 257 262 263 265 269 269 276 280 279 264 265 273 260 260 265 264
275 276 277 275 274 272 273 271 269 269 266 259 258 259 255 256 256 239 243 253 255 247 245 241 248 248 253 255 260 260 263 260 268 265 275 271 279 266 273 279 270 273 267
275 274 275 275 274 267 268 265 266 265 268 263 262 266 256 258 253 237 241 248 241 244 243 239 242 244 255 253 257 258 258 256 270 257 265 280 274 278 273 271 279 277 273
276 275 274 272 270 269 265 266 262 260 267 260 262 257 254 254 251 249 240 236 235 240 239 235 234 239 253 256 254 258 258 261 269 264 267 277 272 285 284 275 274 285 272
272 270 268 268 267 265 262 271 265 261 259 252 260 258 255 260 253 249 237 236 232 242 240 237 233 240 248 254 257 255 259 258 259 259 268 268 269 282 282 281 288 292 289
272 265 262 260 262 243 272 258 268 258 263 254 250 254 257 255 252 246 238 238 232 239 238 235 275 271 245 251 254 256 257 257 262 262 267 263 268 278 282 287 286 292 289
270 270 268 262 268 261 257 258 259 255 242 254 252 246 251 250 248 245 245 255 231 231 237 265 233 231 244 248 251 254 253 254 273 256 268 264 272 275 278 278 295 298 294
290 288 288 264 276 266 264 264 246 234 253 252 233 237 239 252 251 243 243 241 230 227 234 232 232 233 243 248 252 252 255 254 257 257 264 263 278 272 282 283 295 292 293
295 296 293 281 278 271 259 257 257 244 248 234 236 229 238 247 249 249 241 238 229 229 227 230 229 233 231 249 252 252 254 255 258 271 263 265 266 280 281 284 296 293 289